[[{"header":{"parameterUnit":"m.s-1","parameterCategory":1,"la1":30.2991,"la2":30.254,"lo1":-89.0895,"lo2":-89.0444,"dy":0.0017,"dx":0.0017,"nx":28,"ny":28,"refTime":"2025-04-25T03:00:00:Z","depth":0,"parameterNumber":2,"parameterNumberName":"U-component_of_WINDS"},"data":[0,0,0,0,0,0,0,0,0,0,0,0,0,0,0,0,0,0,0,0,0,0,0,0,0,0,0,0,0,0,0,0,0,0,0,0,0,0,0,0,0,0,0,0,0,0,0,0,0,0,0,0,0,0,0,0,0,0,-0.432,-0.432,0,-0.4309,-0.4309,-0.4309,-0.4314,-0.4314,-0.4315,-0.4315,-0.4304,-0.4303,-0.4302,0,0,0,0,0,0,0,0,0,0,0,0,0,-0.4347,-0.4346,-0.432,-0.432,-0.432,-0.4309,-0.4309,-0.4309,-0.4314,-0.4314,-0.4315,-0.4315,-0.4304,-0.4303,-0.4302,0,0,0,0,0,0,0,0,0,0,0,0,0,-0.4336,-0.4346,-0.432,-0.4321,-0.4321,-0.4309,-0.4309,-0.4309,-0.4314,-0.4314,-0.4315,-0.4315,-0.4304,-0.4303,-0.4302,-0.4289,0,0,-0.43,-0.4299,0,0,0,0,0,0,0,0,-0.4336,-0.4335,-0.4321,-0.4321,-0.4321,-0.4313,-0.4314,-0.4302,-0.4314,-0.4317,-0.4315,-0.4315,-0.4307,-0.4306,-0.4302,-0.4288,-0.4288,-0.43,-0.4299,-0.4299,-0.4299,0,0,0,0,0,0,0,-0.4337,-0.4335,-0.4316,-0.4321,-0.4321,-0.4323,-0.4321,-0.4312,-0.4309,-0.4317,-0.4317,-0.4315,-0.4307,-0.4303,-0.4302,-0.4287,-0.43,-0.4299,-0.4298,-0.4298,-0.4262,-0.4261,0,0,0,0,0,0,-0.4338,-0.4336,-0.4316,-0.4316,-0.433,-0.4322,-0.432,-0.4316,-0.431,-0.4309,-0.4315,-0.4316,-0.4305,-0.4303,-0.4302,-0.4285,-0.4299,-0.4298,-0.4298,-0.4262,-0.4261,-0.4261,0,0,0,0,0,0,-0.4338,-0.4336,-0.4317,-0.4326,-0.4323,-0.4321,-0.4315,-0.4315,-0.4312,-0.4308,-0.4308,-0.4312,-0.4305,-0.4303,-0.4292,-0.4285,-0.4298,-0.4297,-0.4263,-0.4262,-0.4261,-0.4252,0,0,0,0,0,0,-0.4339,-0.4336,-0.4331,-0.4326,-0.4323,-0.4307,-0.4315,-0.4315,-0.431,-0.4311,-0.4306,-0.4305,-0.4305,-0.4293,-0.4291,-0.4284,-0.4296,-0.4263,-0.4262,-0.4261,-0.4253,-0.4251,-0.425,0,0,0,0,0,-0.434,-0.4329,-0.433,-0.4328,-0.4316,-0.4306,-0.4305,-0.4305,-0.431,-0.4304,-0.4302,-0.4305,-0.4286,-0.4292,-0.429,-0.4282,-0.4264,-0.4262,-0.4261,-0.4254,-0.4252,-0.425,0,0,0,0,0,0,-0.4333,-0.4328,-0.433,-0.4317,-0.4312,-0.4307,-0.43,-0.4303,-0.4296,-0.4297,-0.4298,-0.4297,-0.4285,-0.4283,-0.4289,-0.4269,-0.4276,-0.4274,-0.4271,-0.4269,-0.4267,-0.4268,-0.4295,0,0,0,0,0,-0.433,-0.4322,-0.4318,-0.4307,-0.4305,-0.4303,-0.4299,-0.4299,-0.4294,-0.4292,-0.429,-0.4285,-0.4278,-0.4273,-0.4267,-0.4253,-0.4252,-0.4247,-0.4245,-0.4244,-0.4243,-0.4235,-0.4233,-0.4257,-0.4257,-0.4258,0,0,-0.4323,-0.432,-0.4315,-0.4306,-0.4302,-0.4294,-0.4301,-0.4293,-0.4287,-0.4291,-0.428,-0.4278,-0.4273,-0.4261,-0.4255,-0.4258,-0.4236,-0.4243,-0.4242,-0.4241,-0.4234,-0.4232,-0.423,-0.4257,-0.4257,-0.4257,0,0,-0.4308,-0.4304,-0.4294,-0.4291,-0.4285,-0.4284,-0.4282,-0.4277,-0.4276,-0.4265,-0.4268,-0.4261,-0.4249,-0.4245,-0.4242,-0.4225,-0.4228,-0.4223,-0.4214,-0.4207,-0.4205,-0.4204,-0.4197,-0.4195,-0.4222,-0.4222,-0.4222,0,-0.43,-0.4289,-0.4289,-0.428,-0.4276,-0.428,-0.427,-0.4266,-0.4259,-0.4256,-0.426,-0.4245,-0.4242,-0.4229,-0.4225,-0.4222,-0.4219,-0.4223,-0.4206,-0.4204,-0.4202,-0.4196,-0.4194,-0.4221,-0.4221,-0.4221,-0.4221,0,-0.428,-0.4272,-0.4264,-0.4257,-0.4252,-0.4243,-0.4242,-0.4237,-0.4239,-0.4237,-0.4226,-0.4223,-0.4215,-0.4212,-0.4213,-0.4199,-0.4202,-0.4206,-0.4212,-0.4199,-0.4194,-0.4192,-0.422,-0.4221,-0.4221,-0.4221,0,0,-0.4259,-0.4252,-0.425,-0.4246,-0.4241,-0.4235,-0.4226,-0.4219,-0.4214,-0.4209,-0.4202,-0.4192,-0.4195,-0.4191,-0.4192,-0.4186,-0.4173,-0.4191,-0.419,-0.4187,-0.4157,-0.4154,-0.4151,-0.4175,-0.4174,-0.4174,-0.4158,0,-0.4242,-0.4227,-0.4227,-0.4212,-0.4205,-0.4208,-0.4201,-0.4196,-0.4195,-0.4189,-0.4188,-0.418,-0.4186,-0.4183,-0.4177,-0.4176,-0.4167,-0.4177,-0.4168,-0.4167,-0.4168,-0.4149,-0.4145,-0.413,-0.4155,-0.4155,-0.4155,0,-0.4221,-0.4215,-0.42,-0.4195,-0.4192,-0.4185,-0.4179,-0.4173,-0.4168,-0.4168,-0.4164,-0.4165,-0.4157,-0.4164,-0.4152,-0.4159,-0.4155,-0.4154,-0.4153,-0.4152,-0.416,-0.4147,-0.4125,-0.4122,-0.4151,-0.4152,-0.4152,0,-0.4207,-0.4195,-0.4185,-0.4182,-0.4177,-0.4172,-0.4169,-0.4165,-0.4161,-0.4156,-0.4153,-0.4146,-0.4143,-0.4138,-0.4138,-0.4143,-0.4126,-0.4133,-0.4125,-0.4125,-0.4121,-0.4121,-0.4098,-0.4119,-0.4119,-0.4119,-0.4119,0,-0.4189,-0.4179,-0.4178,-0.4172,-0.4161,-0.4162,-0.4151,-0.415,-0.4146,-0.4139,-0.4142,-0.4136,-0.4136,-0.413,-0.413,-0.412,-0.4118,-0.4118,-0.4118,-0.4117,-0.4117,-0.4115,-0.4116,-0.4119,-0.4119,-0.4119,-0.4119,0,-0.4171,-0.417,-0.4159,-0.4155,-0.4154,-0.4146,-0.4143,-0.4136,-0.4135,-0.4127,-0.4125,-0.4123,-0.4116,-0.4116,-0.4107,-0.4108,-0.4095,-0.4097,-0.4097,-0.4097,-0.4089,-0.4089,-0.4063,-0.4059,-0.4083,-0.4083,-0.4083,0,-0.4159,-0.4152,-0.4147,-0.4142,-0.414,-0.4133,-0.4128,-0.4129,-0.4124,-0.4119,-0.4113,-0.4106,-0.4101,-0.4089,-0.4087,-0.4081,-0.4082,-0.4073,-0.4081,-0.4081,-0.4081,-0.4082,-0.4081,-0.4071,-0.4071,-0.4071,-0.4071,0,-0.4138,-0.4138,-0.4131,-0.4125,-0.412,-0.4115,-0.411,-0.4106,-0.4106,-0.4101,-0.4094,-0.4089,-0.4081,-0.4074,-0.4068,-0.4065,-0.4068,-0.4068,-0.4066,-0.4065,-0.4065,-0.4065,-0.4092,-0.4069,-0.4069,-0.4069,-0.4069,-0.4069,-0.4122,-0.4116,-0.4112,-0.4105,-0.4101,-0.4097,-0.4091,-0.4089,-0.4083,-0.4076,-0.4077,-0.4068,-0.4064,-0.4056,-0.4054,-0.4047,-0.405,-0.4047,-0.4046,-0.4045,-0.4044,-0.4067,-0.4046,-0.4046,-0.4046,-0.4046,-0.4046,0,-0.4101,-0.4099,-0.4092,-0.4085,-0.408,-0.4083,-0.4078,-0.4073,-0.4066,-0.4062,-0.4056,-0.4048,-0.4041,-0.4039,-0.4032,-0.4028,-0.4029,-0.4026,-0.4026,-0.4025,-0.4042,-0.4045,-0.4025,-0.4025,-0.4025,-0.4025,-0.4025,-0.4025,-0.409,-0.4079,-0.4079,-0.4066,-0.4064,-0.4056,-0.4053,-0.4049,-0.4045,-0.4036,-0.403,-0.4029,-0.4026,-0.4019,-0.4013,-0.4013,-0.401,-0.4006,-0.4007,-0.4022,-0.4024,-0.4026,-0.4029,-0.4006,-0.4006,-0.399,-0.399,-0.399]},{"header":{"parameterUnit":"m.s-1","parameterCategory":1,"la1":30.2991,"la2":30.254,"lo1":-89.0895,"lo2":-89.0444,"dy":0.0017,"dx":0.0017,"nx":28,"ny":28,"refTime":"2025-04-25T03:00:00:Z","depth":0,"parameterNumber":3,"parameterNumberName":"V-component_of_WINDS"},"data":[0,0,0,0,0,0,0,0,0,0,0,0,0,0,0,0,0,0,0,0,0,0,0,0,0,0,0,0,0,0,0,0,0,0,0,0,0,0,0,0,0,0,0,0,0,0,0,0,0,0,0,0,0,0,0,0,0,0,0.0234,0.0233,0,0.0191,0.019,0.019,0.0153,0.0153,0.0152,0.0152,0.0108,0.0107,0.0106,0,0,0,0,0,0,0,0,0,0,0,0,0,0.0285,0.0284,0.0234,0.0233,0.0233,0.0191,0.019,0.019,0.0153,0.0152,0.0152,0.0152,0.0108,0.0107,0.0106,0,0,0,0,0,0,0,0,0,0,0,0,0,0.0254,0.0284,0.0234,0.0209,0.0207,0.0191,0.019,0.019,0.0153,0.0152,0.0152,0.0151,0.0108,0.0107,0.0106,0.0111,0,0,0.0102,0.0102,0,0,0,0,0,0,0,0,0.0256,0.0252,0.0214,0.0211,0.0208,0.0177,0.0192,0.0163,0.0153,0.0174,0.0152,0.0151,0.0131,0.0128,0.0121,0.0109,0.0107,0.0102,0.0101,0.0101,0.0101,0,0,0,0,0,0,0,0.0258,0.0254,0.0217,0.0213,0.021,0.0201,0.0196,0.0186,0.0156,0.0172,0.0169,0.0164,0.0129,0.0122,0.012,0.0106,0.0102,0.0101,0.01,0.01,0.0096,0.0096,0,0,0,0,0,0,0.0264,0.0256,0.0218,0.0216,0.0231,0.02,0.0195,0.0187,0.0156,0.0151,0.0165,0.0163,0.0125,0.0121,0.0118,0.0122,0.0101,0.01,0.0099,0.0095,0.0096,0.0097,0,0,0,0,0,0,0.0265,0.0261,0.022,0.0235,0.0229,0.02,0.0192,0.0187,0.018,0.0151,0.0146,0.0163,0.0124,0.012,0.0113,0.012,0.0099,0.0098,0.0094,0.0095,0.0096,0.013,0,0,0,0,0,0,0.0267,0.0262,0.0263,0.0235,0.0228,0.0215,0.0193,0.0186,0.0178,0.0175,0.0148,0.0143,0.0123,0.0115,0.0112,0.0118,0.0097,0.0094,0.0095,0.0096,0.0128,0.0132,0.0135,0,0,0,0,0,0.0269,0.0274,0.0263,0.0259,0.023,0.0216,0.0212,0.0189,0.0179,0.018,0.0162,0.0144,0.012,0.0115,0.0111,0.0117,0.0093,0.0095,0.0096,0.0126,0.0131,0.0135,0,0,0,0,0,0,0.0304,0.027,0.0258,0.0254,0.0238,0.021,0.0211,0.0195,0.0181,0.0179,0.0151,0.0145,0.0142,0.0128,0.0123,0.012,0.0104,0.0105,0.0129,0.0133,0.0136,0.014,0.0096,0,0,0,0,0,0.0311,0.0303,0.0274,0.0274,0.0266,0.024,0.0233,0.0217,0.0199,0.0192,0.0173,0.0157,0.0145,0.0138,0.0126,0.0126,0.012,0.0128,0.0132,0.0135,0.0136,0.0135,0.0138,0.0101,0.0101,0.0101,0,0,0.0326,0.0307,0.0303,0.028,0.0266,0.0258,0.0234,0.0227,0.0221,0.0191,0.0183,0.0169,0.0148,0.0145,0.0142,0.0134,0.0144,0.0136,0.0139,0.0138,0.0136,0.014,0.0143,0.0102,0.0102,0.0102,0,0,0.0349,0.0334,0.0332,0.0318,0.0297,0.0279,0.0279,0.0253,0.0242,0.0234,0.0211,0.0204,0.0185,0.0171,0.0162,0.018,0.0164,0.0177,0.0196,0.0195,0.0198,0.02,0.0207,0.021,0.0178,0.0178,0.0178,0,0.037,0.0357,0.0333,0.0327,0.0317,0.029,0.0288,0.0276,0.0252,0.0246,0.0237,0.0213,0.0197,0.019,0.0195,0.0188,0.0187,0.018,0.02,0.0202,0.0204,0.021,0.0212,0.018,0.018,0.018,0.018,0,0.0385,0.0376,0.0377,0.0355,0.0345,0.0341,0.0317,0.031,0.0295,0.0279,0.0271,0.0251,0.0235,0.0232,0.0217,0.0223,0.0218,0.0205,0.0188,0.0209,0.0215,0.0217,0.0183,0.0182,0.0181,0.0181,0,0,0.0428,0.0393,0.0393,0.0383,0.0357,0.035,0.0345,0.0329,0.0324,0.0309,0.0304,0.0289,0.0276,0.0265,0.0249,0.0248,0.0264,0.0234,0.0233,0.0241,0.027,0.028,0.0283,0.0253,0.0253,0.0254,0.0272,0,0.0447,0.0437,0.0415,0.0411,0.0403,0.0377,0.0372,0.0357,0.0341,0.0332,0.0315,0.0305,0.0289,0.0282,0.0281,0.0263,0.027,0.0261,0.0248,0.0248,0.0254,0.0286,0.0297,0.0315,0.0273,0.0274,0.0274,0,0.0468,0.0454,0.045,0.0425,0.0421,0.0417,0.0401,0.0392,0.0374,0.0363,0.0351,0.0333,0.0326,0.0311,0.0302,0.0296,0.029,0.028,0.0281,0.0278,0.0262,0.0285,0.032,0.0322,0.0277,0.0277,0.0276,0,0.05,0.048,0.0475,0.0467,0.0438,0.0436,0.0424,0.0405,0.0397,0.0383,0.0377,0.0362,0.0354,0.0343,0.0322,0.0313,0.0315,0.0298,0.0305,0.0306,0.0307,0.0307,0.0341,0.0303,0.0303,0.0303,0.0303,0,0.0524,0.0522,0.0489,0.0486,0.0484,0.0458,0.0457,0.0442,0.0425,0.0419,0.0396,0.039,0.0362,0.0353,0.0336,0.0331,0.0327,0.0318,0.0314,0.032,0.0322,0.0316,0.0314,0.0303,0.0303,0.0303,0.0303,0,0.056,0.0538,0.053,0.0503,0.0497,0.0496,0.0473,0.0469,0.0452,0.0445,0.0441,0.0415,0.0404,0.0381,0.0363,0.0352,0.0351,0.0343,0.0357,0.0354,0.0363,0.0363,0.0395,0.0398,0.0358,0.0358,0.0358,0,0.0576,0.0574,0.0547,0.0541,0.053,0.0521,0.0513,0.0488,0.048,0.0459,0.0458,0.0444,0.0432,0.0415,0.0395,0.0381,0.0373,0.0385,0.0371,0.0377,0.0373,0.0374,0.0373,0.0388,0.0389,0.0389,0.039,0,0.0608,0.0597,0.0586,0.0571,0.0562,0.0549,0.0535,0.0531,0.0503,0.0496,0.0484,0.0475,0.0457,0.0444,0.0427,0.0415,0.0398,0.0394,0.0395,0.0402,0.0411,0.0406,0.0366,0.0394,0.0393,0.0393,0.0393,0.0393,0.0634,0.0631,0.0612,0.06,0.0587,0.0575,0.057,0.0553,0.0542,0.0526,0.0512,0.0501,0.0483,0.0459,0.0448,0.0439,0.0431,0.0432,0.0432,0.0433,0.0436,0.0412,0.0436,0.0436,0.0435,0.0435,0.0435,0,0.0664,0.0651,0.0641,0.0622,0.0613,0.0598,0.0581,0.0575,0.0566,0.055,0.0539,0.0525,0.0513,0.0492,0.0478,0.0475,0.0467,0.0472,0.0472,0.0469,0.0444,0.0445,0.0479,0.0479,0.0479,0.0479,0.0479,0.0479,0.0679,0.0674,0.0661,0.0649,0.0635,0.0624,0.0617,0.0605,0.0592,0.0578,0.0568,0.0554,0.0536,0.0521,0.0509,0.0503,0.0499,0.0507,0.0498,0.0475,0.0471,0.0467,0.0467,0.0506,0.0506,0.0524,0.0524,0.0524]}]]